| time (UTC) | temp F | wind direction | speed MPH | gust MPH | rain 1hr in | rain 24hr in | rain mn in | humidity % | barometer mb |
| 20260507113035 | 40 | 0 | 0.0 | 0.0 | 0.00 | 0.03 | 0.01 | 92 | 1015.8 |
| 20260507111548 | 40 | 0 | 0.0 | 0.0 | 0.00 | 0.03 | 0.01 | 92 | 1015.7 |
| 20260507110044 | 39 | 0 | 0.0 | 0.0 | 0.00 | 0.03 | 0.01 | 91 | 1015.5 |
| 20260507104543 | 40 | 0 | 0.0 | 0.0 | 0.00 | 0.03 | 0.01 | 91 | 1015.3 |
| 20260507103042 | 40 | 0 | 0.0 | 0.0 | 0.01 | 0.03 | 0.01 | 90 | 1015.3 |
| 20260507101546 | 40 | 0 | 0.0 | 0.0 | 0.01 | 0.03 | 0.01 | 90 | 1015.2 |
| 20260507100045 | 41 | 0 | 0.0 | 0.0 | 0.01 | 0.03 | 0.01 | 90 | 1015.2 |
| 20260507094542 | 41 | 0 | 0.0 | 0.0 | 0.01 | 0.03 | 0.01 | 90 | 1015.2 |
| 20260507093045 | 41 | 0 | 0.0 | 0.0 | 0.00 | 0.02 | 0.00 | 91 | 1015.2 |
| 20260507091542 | 41 | 0 | 0.0 | 0.0 | 0.00 | 0.02 | 0.00 | 90 | 1015.1 |
| 20260507090038 | 42 | 0 | 0.0 | 0.0 | 0.00 | 0.02 | 0.00 | 90 | 1015.0 |
| 20260507084537 | 42 | 0 | 0.0 | 0.0 | 0.00 | 0.02 | 0.00 | 90 | 1014.9 |
| 20260507083043 | 42 | 0 | 0.0 | 0.0 | 0.00 | 0.02 | 0.00 | 90 | 1014.9 |
| 20260507081542 | 42 | 0 | 0.0 | 0.0 | 0.00 | 0.02 | 0.00 | 90 | 1014.6 |
| 20260507080040 | 42 | 0 | 0.0 | 0.0 | 0.00 | 0.02 | 0.00 | 89 | 1014.7 |
| 20260507074538 | 43 | 0 | 0.0 | 0.0 | 0.00 | 0.02 | 0.00 | 89 | 1014.6 |
| 20260507073037 | 43 | 0 | 0.0 | 0.0 | 0.00 | 0.02 | 0.00 | 89 | 1014.6 |
| 20260507071535 | 43 | 0 | 0.0 | 0.0 | 0.00 | 0.02 | 0.00 | 89 | 1014.7 |
| 20260507070044 | 44 | 0 | 0.0 | 0.0 | 0.00 | 0.02 | 0.00 | 88 | 1014.6 |
| 20260507064541 | 44 | 0 | 0.0 | 0.0 | 0.00 | 0.03 | 0.00 | 88 | 1014.7 |
| 20260507063042 | 44 | 0 | 0.0 | 0.0 | 0.00 | 0.03 | 0.00 | 88 | 1014.9 |
| 20260507061544 | 44 | 0 | 0.0 | 0.0 | 0.00 | 0.03 | 0.00 | 88 | 1014.7 |
| 20260507060052 | 44 | 0 | 0.0 | 0.0 | 0.00 | 0.03 | 0.00 | 87 | 1014.7 |
| 20260507054548 | 44 | 0 | 0.0 | 0.0 | 0.00 | 0.03 | 0.00 | 86 | 1014.8 |
| 20260507053042 | 45 | 0 | 0.0 | 0.0 | 0.00 | 0.03 | 0.00 | 86 | 1015.0 |
| 20260507051545 | 45 | 0 | 0.0 | 0.0 | 0.00 | 0.03 | 0.00 | 86 | 1014.8 |
| 20260507050046 | 45 | 0 | 0.0 | 0.0 | 0.00 | 0.03 | 0.00 | 85 | 1015.0 |
| 20260507044553 | 45 | 0 | 0.0 | 0.0 | 0.00 | 0.04 | 0.00 | 85 | 1015.1 |
| 20260507043040 | 46 | 0 | 0.0 | 0.0 | 0.00 | 0.04 | 0.00 | 84 | 1014.9 |
| 20260507041543 | 46 | 0 | 0.0 | 0.0 | 0.00 | 0.04 | 0.00 | 83 | 1014.9 |
| 20260507040049 | 46 | 0 | 0.0 | 0.0 | 0.00 | 0.04 | 0.00 | 83 | 1014.8 |
| 20260507034538 | 47 | 0 | 0.0 | 0.0 | 0.00 | 0.04 | 0.04 | 82 | 1014.7 |
| 20260507033035 | 47 | 0 | 0.0 | 0.0 | 0.00 | 0.04 | 0.04 | 81 | 1014.9 |
| 20260507031543 | 47 | 0 | 0.0 | 0.0 | 0.00 | 0.04 | 0.04 | 80 | 1014.9 |
| 20260507030045 | 48 | 0 | 0.0 | 0.0 | 0.00 | 0.04 | 0.04 | 80 | 1014.9 |
| 20260507024545 | 48 | 0 | 0.0 | 0.0 | 0.00 | 0.05 | 0.04 | 79 | 1014.9 |
| 20260507023037 | 49 | 0 | 0.0 | 0.0 | 0.00 | 0.05 | 0.04 | 77 | 1014.8 |
| 20260507021536 | 49 | 0 | 0.0 | 0.0 | 0.00 | 0.05 | 0.04 | 76 | 1014.8 |
| 20260507020049 | 50 | 0 | 0.0 | 0.0 | 0.00 | 0.05 | 0.04 | 75 | 1014.6 |
| 20260507014542 | 51 | 0 | 0.0 | 0.0 | 0.00 | 0.06 | 0.04 | 74 | 1014.6 |
| 20260507013036 | 52 | 0 | 0.0 | 0.0 | 0.00 | 0.06 | 0.04 | 70 | 1014.3 |
| 20260507011536 | 52 | 0 | 0.0 | 0.0 | 0.00 | 0.06 | 0.04 | 68 | 1014.1 |
| 20260507010044 | 53 | 0 | 0.0 | 0.0 | 0.00 | 0.06 | 0.04 | 68 | 1014.2 |
| 20260507004539 | 54 | 0 | 0.0 | 0.0 | 0.00 | 0.07 | 0.04 | 65 | 1014.2 |
| 20260507003045 | 55 | 0 | 0.0 | 0.0 | 0.00 | 0.07 | 0.04 | 65 | 1014.1 |
| 20260507001544 | 55 | 0 | 0.0 | 0.0 | 0.00 | 0.07 | 0.04 | 61 | 1014.0 |
| 20260507000048 | 56 | 0 | 0.0 | 2.0 | 0.00 | 0.07 | 0.04 | 62 | 1013.8 |
| 20260506234541 | 56 | 121 | 0.0 | 10.0 | 0.00 | 0.09 | 0.04 | 60 | 1013.5 |
| 20260506233045 | 56 | 0 | 0.0 | 4.0 | 0.00 | 0.09 | 0.04 | 61 | 1013.5 |
| 20260506231545 | 57 | 0 | 2.0 | 9.0 | 0.00 | 0.09 | 0.04 | 58 | 1013.3 |
| 20260506230044 | 57 | 0 | 0.0 | 2.0 | 0.00 | 0.09 | 0.04 | 58 | 1013.3 |
| 20260506224544 | 57 | 0 | 0.0 | 2.0 | 0.00 | 0.09 | 0.04 | 59 | 1013.3 |
| 20260506223050 | 57 | 0 | 0.0 | 2.0 | 0.00 | 0.09 | 0.04 | 58 | 1013.5 |
| 20260506221548 | 57 | 0 | 1.0 | 4.0 | 0.00 | 0.09 | 0.04 | 56 | 1013.6 |
| 20260506220048 | 57 | 0 | 0.0 | 1.0 | 0.00 | 0.09 | 0.04 | 58 | 1013.8 |
| 20260506214601 | 57 | 0 | 0.0 | 3.0 | 0.00 | 0.10 | 0.04 | 60 | 1013.6 |
| 20260506213044 | 57 | 229 | 0.0 | 3.0 | 0.00 | 0.10 | 0.04 | 58 | 1013.5 |
| 20260506211541 | 58 | 0 | 0.0 | 3.0 | 0.00 | 0.10 | 0.04 | 60 | 1013.4 |
| 20260506210052 | 58 | 246 | 1.0 | 7.0 | 0.00 | 0.10 | 0.04 | 54 | 1013.2 |
| 20260506204549 | 58 | 0 | 0.0 | 2.0 | 0.00 | 0.10 | 0.04 | 57 | 1013.2 |
| 20260506203047 | 58 | 131 | 0.0 | 3.0 | 0.00 | 0.10 | 0.04 | 56 | 1013.3 |
| 20260506201545 | 58 | 0 | 0.0 | 7.0 | 0.01 | 0.10 | 0.04 | 60 | 1013.3 |
| 20260506200042 | 58 | 0 | 0.0 | 4.0 | 0.01 | 0.10 | 0.04 | 56 | 1013.3 |
| 20260506194557 | 58 | 0 | 0.0 | 6.0 | 0.01 | 0.10 | 0.04 | 58 | 1013.4 |
| 20260506193043 | 59 | 223 | 2.0 | 6.0 | 0.01 | 0.10 | 0.04 | 53 | 1013.1 |
| 20260506191543 | 59 | 0 | 0.0 | 4.0 | 0.00 | 0.09 | 0.03 | 55 | 1012.9 |
| 20260506190044 | 59 | 196 | 1.0 | 7.0 | 0.00 | 0.09 | 0.03 | 55 | 1012.8 |
| 20260506184540 | 60 | 130 | 0.0 | 8.0 | 0.00 | 0.09 | 0.03 | 56 | 1012.9 |
| 20260506183036 | 60 | 107 | 1.0 | 4.0 | 0.00 | 0.09 | 0.03 | 59 | 1012.7 |
| 20260506181537 | 59 | 182 | 2.0 | 7.0 | 0.00 | 0.09 | 0.03 | 59 | 1012.8 |
| 20260506180049 | 59 | 0 | 0.0 | 8.0 | 0.00 | 0.09 | 0.03 | 58 | 1013.1 |
| 20260506174542 | 58 | 273 | 0.0 | 4.0 | 0.00 | 0.09 | 0.03 | 59 | 1013.1 |
| 20260506173042 | 57 | 162 | 2.0 | 6.0 | 0.00 | 0.09 | 0.03 | 56 | 1013.3 |
| 20260506171551 | 57 | 240 | 0.0 | 6.0 | 0.00 | 0.09 | 0.03 | 64 | 1013.3 |
| 20260506170049 | 56 | 241 | 2.0 | 5.0 | 0.00 | 0.09 | 0.03 | 59 | 1013.5 |
| 20260506164544 | 56 | 234 | 0.0 | 8.0 | 0.00 | 0.09 | 0.03 | 64 | 1013.6 |
| 20260506163045 | 55 | 110 | 1.0 | 8.0 | 0.00 | 0.09 | 0.03 | 64 | 1013.4 |
| 20260506161542 | 55 | 0 | 2.0 | 6.0 | 0.00 | 0.09 | 0.03 | 67 | 1013.5 |
| 20260506160039 | 54 | 0 | 1.0 | 5.0 | 0.00 | 0.09 | 0.03 | 72 | 1013.3 |
| 20260506154537 | 53 | 227 | 2.0 | 5.0 | 0.00 | 0.09 | 0.03 | 65 | 1013.2 |
| 20260506153043 | 52 | 233 | 2.0 | 9.0 | 0.00 | 0.09 | 0.03 | 68 | 1013.4 |
| 20260506151543 | 52 | 203 | 1.0 | 5.0 | 0.00 | 0.09 | 0.03 | 72 | 1013.5 |
| 20260506150047 | 51 | 153 | 0.0 | 4.0 | 0.00 | 0.09 | 0.03 | 77 | 1013.1 |
| 20260506144547 | 50 | 0 | 0.0 | 7.0 | 0.00 | 0.09 | 0.03 | 79 | 1012.6 |
| 20260506143045 | 49 | 0 | 0.0 | 5.0 | 0.00 | 0.09 | 0.03 | 80 | 1012.2 |
| 20260506141537 | 49 | 0 | 0.0 | 5.0 | 0.00 | 0.09 | 0.03 | 85 | 1012.4 |
| 20260506140055 | 48 | 113 | 1.0 | 7.0 | 0.01 | 0.09 | 0.03 | 85 | 1012.4 |
| 20260506134543 | 47 | 232 | 1.0 | 6.0 | 0.01 | 0.09 | 0.03 | 86 | 1012.1 |
| 20260506133052 | 47 | 216 | 1.0 | 7.0 | 0.01 | 0.09 | 0.03 | 87 | 1012.0 |
| 20260506131544 | 46 | 113 | 1.0 | 4.0 | 0.01 | 0.09 | 0.03 | 89 | 1011.8 |
| 20260506130044 | 46 | 0 | 0.0 | 7.0 | 0.00 | 0.08 | 0.02 | 90 | 1011.9 |
| 20260506124543 | 45 | 0 | 0.0 | 0.0 | 0.00 | 0.08 | 0.02 | 92 | 1011.7 |
| 20260506123046 | 45 | 0 | 0.0 | 7.0 | 0.00 | 0.08 | 0.02 | 92 | 1011.8 |
| 20260506121609 | 45 | 0 | 0.0 | 2.0 | 0.00 | 0.08 | 0.02 | 93 | 1011.6 |
| 20260506120046 | 44 | 0 | 0.0 | 3.0 | 0.00 | 0.08 | 0.02 | 93 | 1010.9 |
| 20260506114543 | 44 | 0 | 1.0 | 4.0 | 0.00 | 0.08 | 0.02 | 93 | 1010.5 |